RWZ4332 UDYZ-URMM

Flight info

Callsign RWZ4332
Flight time 0h 48m
Altitude 38000
Route SEVAN3E SEVAN T924 TISOT N82 LAPTO/K0778F380 N82 OKARU OKARU5B
Aircraft SU95/M-SDE3GILORVW/S

Departure

Time 2026-04-20 13:34
Airport Zvartnots International Airport (UDYZ)

Arrival

Time 2026-04-20 14:22
Airport Mineralnye Vody Airport (URMM)
Time Latitude Longitude Altitude Speed Heading
2026-04-20 13:25 40.14992 44.39995 2835 ft 0 kts 15°
2026-04-20 13:28 40.15004 44.40010 2833 ft 3 kts 72°
2026-04-20 13:28 40.14997 44.40056 2835 ft 8 kts 117°
2026-04-20 13:28 40.14985 44.40114 2835 ft 5 kts 91°
2026-04-20 13:29 40.14986 44.40153 2835 ft 3 kts 88°
2026-04-20 13:29 40.14987 44.40235 2835 ft 11 kts 85°
2026-04-20 13:29 40.14988 44.40319 2833 ft 8 kts 96°
2026-04-20 13:29 40.14987 44.40374 2835 ft 6 kts 89°
2026-04-20 13:30 40.14987 44.40433 2835 ft 5 kts 89°
2026-04-20 13:30 40.14988 44.40526 2835 ft 25 kts 90°
2026-04-20 13:30 40.14990 44.40746 2835 ft 18 kts 90°
2026-04-20 13:30 40.14992 44.40888 2835 ft 14 kts 91°
2026-04-20 13:31 40.14992 44.40997 2835 ft 10 kts 90°
2026-04-20 13:31 40.14991 44.41097 2835 ft 18 kts 91°
2026-04-20 13:31 40.14987 44.41257 2835 ft 16 kts 92°
2026-04-20 13:31 40.14995 44.41390 2835 ft 14 kts 90°
2026-04-20 13:32 40.14994 44.41583 2835 ft 22 kts 89°
2026-04-20 13:32 40.14955 44.41725 2836 ft 8 kts 147°
2026-04-20 13:32 40.14916 44.41759 2836 ft 9 kts 146°
2026-04-20 13:32 40.14807 44.41833 2841 ft 17 kts 175°
2026-04-20 13:33 40.14743 44.41767 2841 ft 12 kts 272°
2026-04-20 13:33 40.14743 44.41450 2837 ft 74 kts 268°
2026-04-20 13:33 40.14738 44.40432 2836 ft 148 kts 269°
2026-04-20 13:33 40.14749 44.38876 3159 ft 184 kts 270°
2026-04-20 13:34 40.14780 44.37626 3707 ft 198 kts 270°
2026-04-20 13:34 40.14794 44.36890 4003 ft 207 kts 270°
2026-04-20 13:34 40.14811 44.34950 4805 ft 223 kts 270°
2026-04-20 13:34 40.15076 44.32895 5368 ft 238 kts 295°
2026-04-20 13:35 40.16145 44.31232 6167 ft 243 kts 327°
2026-04-20 13:35 40.17713 44.30570 7186 ft 236 kts 358°
2026-04-20 13:35 40.19311 44.31044 8121 ft 240 kts 29°
2026-04-20 13:35 40.20537 44.32537 8971 ft 246 kts 59°
2026-04-20 13:36 40.21231 44.34604 9829 ft 252 kts 70°
2026-04-20 13:36 40.21859 44.36766 10645 ft 257 kts 67°
2026-04-20 13:36 40.22639 44.38891 11441 ft 262 kts 61°
2026-04-20 13:36 40.23575 44.40966 12241 ft 267 kts 57°
2026-04-20 13:37 40.24613 44.43011 13054 ft 272 kts 55°
2026-04-20 13:37 40.25705 44.45054 13826 ft 277 kts 54°
2026-04-20 13:37 40.26830 44.47126 14540 ft 281 kts 54°
2026-04-20 13:37 40.27973 44.49231 15209 ft 289 kts 55°
2026-04-20 13:38 40.29184 44.51469 15485 ft 313 kts 55°
2026-04-20 13:38 40.30486 44.53886 15777 ft 334 kts 55°
2026-04-20 13:38 40.31833 44.56393 16540 ft 337 kts 55°
2026-04-20 13:38 40.33182 44.58905 17424 ft 337 kts 55°
2026-04-20 13:39 40.34532 44.61423 18293 ft 338 kts 55°
2026-04-20 13:39 40.35864 44.63908 19066 ft 338 kts 55°
2026-04-20 13:39 40.37214 44.66426 19816 ft 339 kts 55°
2026-04-20 13:39 40.38629 44.68996 20079 ft 358 kts 54°
2026-04-20 13:40 40.40148 44.71697 20271 ft 377 kts 54°
2026-04-20 13:40 40.41743 44.74527 20482 ft 396 kts 54°
2026-04-20 13:40 40.43412 44.77499 20819 ft 409 kts 54°
2026-04-20 13:40 40.45105 44.80525 21493 ft 413 kts 54°
2026-04-20 13:41 40.46812 44.83583 22154 ft 417 kts 55°
2026-04-20 13:41 40.48536 44.86677 22794 ft 422 kts 55°
2026-04-20 13:41 40.50282 44.89811 23454 ft 426 kts 54°
2026-04-20 13:41 40.52356 44.92616 23955 ft 432 kts 38°
2026-04-20 13:42 40.54947 44.94637 24462 ft 435 kts 21°
2026-04-20 13:42 40.60873 44.95797 25450 ft 435 kts 351°
2026-04-20 13:42 40.63878 44.95236 25950 ft 437 kts 347°
2026-04-20 13:43 40.66899 44.94605 26458 ft 442 kts 348°
2026-04-20 13:43 40.69966 44.94083 26926 ft 447 kts 350°
2026-04-20 13:43 40.73039 44.93678 27377 ft 451 kts 352°
2026-04-20 13:43 40.76183 44.93338 27808 ft 457 kts 353°
2026-04-20 13:44 40.79374 44.93032 28231 ft 461 kts 353°
2026-04-20 13:44 40.82585 44.92736 28687 ft 464 kts 353°
2026-04-20 13:44 40.85816 44.92440 29114 ft 468 kts 353°
2026-04-20 13:44 40.89081 44.92136 29495 ft 472 kts 353°
2026-04-20 13:45 40.92370 44.91830 29925 ft 475 kts 353°
2026-04-20 13:45 40.95685 44.91519 30285 ft 479 kts 352°
2026-04-20 13:45 40.99017 44.91206 30641 ft 483 kts 352°
2026-04-20 13:45 41.02381 44.90889 31015 ft 486 kts 352°
2026-04-20 13:46 41.05760 44.90571 31395 ft 488 kts 351°
2026-04-20 13:46 41.09153 44.90251 31810 ft 490 kts 351°
2026-04-20 13:46 41.12569 44.89929 32153 ft 493 kts 351°
2026-04-20 13:46 41.15967 44.89608 32473 ft 496 kts 351°
2026-04-20 13:47 41.19420 44.89281 32839 ft 497 kts 351°
2026-04-20 13:47 41.22868 44.88956 33285 ft 497 kts 350°
2026-04-20 13:47 41.26273 44.88349 33740 ft 489 kts 341°
2026-04-20 13:47 41.29535 44.87219 34148 ft 481 kts 334°
2026-04-20 13:48 41.32657 44.85708 34515 ft 477 kts 332°
2026-04-20 13:48 41.35772 44.84183 34879 ft 476 kts 333°
2026-04-20 13:48 41.38874 44.82672 35242 ft 475 kts 333°
2026-04-20 13:48 41.41985 44.81152 35555 ft 475 kts 333°
2026-04-20 13:49 41.45084 44.79634 35860 ft 475 kts 333°
2026-04-20 13:49 41.48184 44.78112 36187 ft 474 kts 333°
2026-04-20 13:49 41.51230 44.76614 36504 ft 473 kts 333°
2026-04-20 13:49 41.54315 44.75094 36815 ft 472 kts 333°
2026-04-20 13:50 41.57385 44.73580 37114 ft 471 kts 334°
2026-04-20 13:50 41.60475 44.72052 37203 ft 476 kts 334°
2026-04-20 13:50 41.66744 44.68948 37300 ft 485 kts 334°
2026-04-20 13:51 41.72016 44.66337 37514 ft 486 kts 334°
2026-04-20 13:51 41.75188 44.64766 37700 ft 486 kts 334°
2026-04-20 13:51 41.78359 44.63192 37894 ft 485 kts 334°
2026-04-20 13:52 41.84674 44.60051 37959 ft 484 kts 334°
2026-04-20 13:52 41.90980 44.56907 37966 ft 483 kts 334°
2026-04-20 13:53 41.97247 44.53629 37988 ft 483 kts 332°
2026-04-20 13:53 42.03477 44.50224 37971 ft 483 kts 332°
2026-04-20 13:54 42.09712 44.46836 37979 ft 483 kts 332°
2026-04-20 13:54 42.15953 44.43456 37997 ft 483 kts 332°
2026-04-20 13:55 42.22204 44.40065 37970 ft 484 kts 332°
2026-04-20 13:55 42.28457 44.36667 37967 ft 484 kts 332°
2026-04-20 13:56 42.34709 44.33260 37965 ft 484 kts 332°
2026-04-20 13:56 42.37814 44.31568 37824 ft 478 kts 332°
2026-04-20 13:56 42.40881 44.29896 37364 ft 472 kts 332°
2026-04-20 13:57 42.43870 44.28262 36772 ft 471 kts 332°
2026-04-20 13:57 42.46945 44.26577 36120 ft 470 kts 332°
2026-04-20 13:57 42.49938 44.24944 35489 ft 471 kts 333°
2026-04-20 13:57 42.53051 44.23496 34888 ft 474 kts 335°
2026-04-20 13:58 42.56190 44.22060 34321 ft 476 kts 335°
2026-04-20 13:58 42.59316 44.20625 33697 ft 475 kts 335°
2026-04-20 13:58 42.62448 44.19198 33003 ft 476 kts 337°
2026-04-20 13:58 42.65685 44.18093 32311 ft 483 kts 342°
2026-04-20 13:59 42.68982 44.17102 31621 ft 484 kts 342°
2026-04-20 13:59 42.72265 44.16106 30944 ft 483 kts 341°
2026-04-20 13:59 42.75552 44.15106 30261 ft 484 kts 341°
2026-04-20 13:59 42.78829 44.14107 29575 ft 483 kts 342°
2026-04-20 14:00 42.82117 44.13104 28805 ft 483 kts 342°
2026-04-20 14:00 42.85392 44.12104 28051 ft 480 kts 343°
2026-04-20 14:00 42.88639 44.11114 27446 ft 476 kts 342°
2026-04-20 14:00 42.91842 44.10137 26916 ft 469 kts 342°
2026-04-20 14:01 42.95023 44.09164 26275 ft 465 kts 343°
2026-04-20 14:01 42.98157 44.08204 25594 ft 459 kts 343°
2026-04-20 14:01 43.01248 44.07257 24954 ft 451 kts 343°
2026-04-20 14:01 43.04297 44.06321 24245 ft 446 kts 343°
2026-04-20 14:02 43.07309 44.05395 23629 ft 439 kts 343°
2026-04-20 14:02 43.10245 44.04494 23428 ft 424 kts 343°
2026-04-20 14:02 43.13075 44.03627 23256 ft 409 kts 343°
2026-04-20 14:02 43.15801 44.02790 23093 ft 394 kts 343°
2026-04-20 14:03 43.18388 44.01990 22951 ft 380 kts 342°
2026-04-20 14:03 43.20923 44.01203 22820 ft 366 kts 342°
2026-04-20 14:03 43.23391 44.00435 22675 ft 352 kts 342°
2026-04-20 14:03 43.25707 43.99713 22547 ft 339 kts 342°
2026-04-20 14:04 43.27979 43.99004 22270 ft 331 kts 342°
2026-04-20 14:04 43.30216 43.98302 21822 ft 329 kts 342°
2026-04-20 14:04 43.32439 43.97604 21373 ft 327 kts 342°
2026-04-20 14:04 43.34647 43.96912 20943 ft 324 kts 342°
2026-04-20 14:05 43.36844 43.96223 20388 ft 326 kts 342°
2026-04-20 14:05 43.39084 43.95517 19649 ft 335 kts 342°
2026-04-20 14:05 43.41389 43.94791 18906 ft 344 kts 342°
2026-04-20 14:05 43.43729 43.94059 18428 ft 343 kts 342°
2026-04-20 14:06 43.46044 43.93340 17994 ft 340 kts 343°
2026-04-20 14:06 43.48340 43.92626 17522 ft 336 kts 343°
2026-04-20 14:06 43.50615 43.91916 17044 ft 334 kts 343°
2026-04-20 14:06 43.52875 43.91209 16571 ft 331 kts 343°
2026-04-20 14:07 43.55115 43.90506 16114 ft 329 kts 343°
2026-04-20 14:07 43.57309 43.89818 15665 ft 327 kts 343°
2026-04-20 14:07 43.59517 43.89124 15214 ft 324 kts 343°
2026-04-20 14:07 43.61709 43.88435 14783 ft 322 kts 343°
2026-04-20 14:08 43.63887 43.87750 14347 ft 320 kts 344°
2026-04-20 14:08 43.66051 43.87069 13936 ft 318 kts 344°
2026-04-20 14:08 43.68200 43.86391 13519 ft 316 kts 344°
2026-04-20 14:08 43.70335 43.85718 13059 ft 314 kts 344°
2026-04-20 14:09 43.72458 43.85049 12617 ft 311 kts 344°
2026-04-20 14:09 43.74562 43.84386 12191 ft 309 kts 344°
2026-04-20 14:09 43.76651 43.83726 11806 ft 306 kts 343°
2026-04-20 14:09 43.78723 43.83070 11431 ft 305 kts 344°
2026-04-20 14:10 43.80787 43.82418 11058 ft 303 kts 344°
2026-04-20 14:10 43.82811 43.81765 10660 ft 300 kts 341°
2026-04-20 14:10 43.84671 43.80565 10244 ft 293 kts 322°
2026-04-20 14:10 43.86118 43.78623 9834 ft 288 kts 305°
2026-04-20 14:11 43.87326 43.76447 9505 ft 283 kts 305°
2026-04-20 14:11 43.88523 43.74296 9075 ft 281 kts 306°
2026-04-20 14:11 43.89714 43.72154 8652 ft 279 kts 306°
2026-04-20 14:11 43.90898 43.70029 8238 ft 278 kts 306°
2026-04-20 14:12 43.92075 43.67914 7822 ft 276 kts 306°
2026-04-20 14:12 43.93247 43.65807 7403 ft 275 kts 307°
2026-04-20 14:12 43.94415 43.63706 7023 ft 273 kts 307°
2026-04-20 14:12 43.95573 43.61623 6630 ft 272 kts 307°
2026-04-20 14:13 43.96727 43.59543 6228 ft 271 kts 307°
2026-04-20 14:13 43.97872 43.57480 5837 ft 269 kts 307°
2026-04-20 14:13 43.99003 43.55444 5665 ft 260 kts 307°
2026-04-20 14:13 44.00080 43.53502 5559 ft 248 kts 307°
2026-04-20 14:14 44.01104 43.51654 5465 ft 235 kts 307°
2026-04-20 14:14 44.02078 43.49895 5340 ft 225 kts 307°
2026-04-20 14:14 44.03026 43.48182 5044 ft 223 kts 307°
2026-04-20 14:14 44.03974 43.46467 4696 ft 224 kts 308°
2026-04-20 14:15 44.04908 43.44774 4379 ft 222 kts 308°
2026-04-20 14:15 44.05848 43.43073 4067 ft 221 kts 308°
2026-04-20 14:15 44.06767 43.41409 3965 ft 213 kts 308°
2026-04-20 14:15 44.07634 43.39840 3966 ft 199 kts 307°
2026-04-20 14:16 44.08529 43.38349 3978 ft 200 kts 314°
2026-04-20 14:16 44.09471 43.36941 3980 ft 198 kts 309°
2026-04-20 14:16 44.10278 43.35469 3977 ft 185 kts 305°
2026-04-20 14:16 44.10999 43.33972 3977 ft 188 kts 303°
2026-04-20 14:17 44.11701 43.32443 3978 ft 188 kts 302°
2026-04-20 14:17 44.12399 43.30913 3972 ft 182 kts 303°
2026-04-20 14:17 44.13060 43.29461 3982 ft 178 kts 302°
2026-04-20 14:17 44.13722 43.28008 3981 ft 173 kts 302°
2026-04-20 14:18 44.14334 43.26663 3824 ft 154 kts 302°
2026-04-20 14:18 44.14910 43.25395 3622 ft 158 kts 302°
2026-04-20 14:18 44.15484 43.24135 3412 ft 147 kts 302°
2026-04-20 14:18 44.16010 43.22981 3223 ft 142 kts 303°
2026-04-20 14:19 44.16541 43.21812 3020 ft 139 kts 302°
2026-04-20 14:19 44.17048 43.20695 2844 ft 135 kts 303°
2026-04-20 14:19 44.17536 43.19623 2663 ft 129 kts 302°
2026-04-20 14:19 44.18030 43.18533 2490 ft 136 kts 302°
2026-04-20 14:20 44.18542 43.17408 2307 ft 137 kts 303°
2026-04-20 14:20 44.19044 43.16304 2118 ft 137 kts 303°
2026-04-20 14:20 44.19555 43.15182 1922 ft 141 kts 304°
2026-04-20 14:20 44.20080 43.14022 1717 ft 141 kts 303°
2026-04-20 14:21 44.20591 43.12916 1495 ft 129 kts 303°
2026-04-20 14:21 44.21097 43.11799 1324 ft 142 kts 302°
2026-04-20 14:21 44.21603 43.10674 1142 ft 135 kts 303°
2026-04-20 14:21 44.22114 43.09544 1054 ft 133 kts 302°
2026-04-20 14:22 44.22470 43.08762 1052 ft 52 kts 303°
2026-04-20 14:22 44.22628 43.08422 1050 ft 40 kts 303°
2026-04-20 14:22 44.22779 43.08094 1047 ft 40 kts 301°
2026-04-20 14:22 44.22921 43.07771 1048 ft 38 kts 302°
2026-04-20 14:23 44.23015 43.07535 1049 ft 6 kts 254°
2026-04-20 14:23 44.23014 43.07446 1050 ft 11 kts 278°
2026-04-20 14:23 44.23022 43.07327 1049 ft 13 kts 275°
2026-04-20 14:23 44.23025 43.07192 1048 ft 14 kts 267°
2026-04-20 14:24 44.23010 43.07071 1048 ft 9 kts 218°
2026-04-20 14:24 44.22932 43.07068 1048 ft 17 kts 168°
2026-04-20 14:24 44.22807 43.07107 1048 ft 20 kts 167°
2026-04-20 14:24 44.22679 43.07151 1048 ft 11 kts 144°
2026-04-20 14:25 44.22628 43.07238 1048 ft 12 kts 122°
2026-04-20 14:25 44.22580 43.07346 1048 ft 14 kts 122°
2026-04-20 14:25 44.22526 43.07467 1048 ft 15 kts 122°
2026-04-20 14:25 44.22466 43.07596 1048 ft 17 kts 123°
2026-04-20 14:26 44.22401 43.07735 1048 ft 18 kts 122°
2026-04-20 14:26 44.22333 43.07885 1048 ft 19 kts 122°
2026-04-20 14:26 44.22263 43.08044 1048 ft 20 kts 121°
2026-04-20 14:26 44.22190 43.08211 1048 ft 21 kts 123°
2026-04-20 14:27 44.22111 43.08384 1048 ft 22 kts 121°
2026-04-20 14:27 44.22035 43.08554 1048 ft 14 kts 122°
2026-04-20 14:27 44.22008 43.08673 1048 ft 12 kts 109°
2026-04-20 14:27 44.21968 43.08761 1048 ft 10 kts 124°
2026-04-20 14:28 44.21935 43.08830 1048 ft 7 kts 128°
2026-04-20 14:28 44.21900 43.08833 1048 ft 5 kts 212°
2026-04-20 14:28 44.21867 43.08802 1048 ft 5 kts 212°
2026-04-20 14:28 44.21862 43.08798 1048 ft 0 kts 212°